User: anonymous   Login
Location: Unspecified
(0.0000°N, 0.0000°E)
Time: 00:09:48
(UTC+00:00)
Language:

STARLINK-4629 - Orbit

View from above orbital plane
View from above orbital plane
View from above satellite
View from above satellite

Ground track
Ground track

The orbit is defined by the following mean orbital elements,

1 53968U          26145.53062683 +.00000000 +00000-0 +12573-3 0 00006
2 53968  53.2166 239.0847 0001173 101.1937 258.9187 15.08843751    05
Epoch (UTC): 25 May 2026 12:44:06
Eccentricity: 0.0001173
inclination: 53.2166°
perigee height: 539 km
apogee height: 541 km
right ascension of ascending node: 239.0847°
argument of perigee: 101.1937°
revolutions per day: 15.08843751
mean anomaly at epoch: 258.9187°

The dashed part of the orbit path shows where the satellite is in the earth's shadow,  

DLR